www.pogodaiklimat.ru

Погода и климат >> Архив погоды >> Россия >> Камчатский край >> Мыс Африка


ПОГОДА на Мысе Африка

  • Прогноз погоды на Мысе Африка
  • Монитор погоды на Мысе Африка

АРХИВ ПОГОДЫ на Мысе Африка

Время (UTC), дата Ветер
(напр.,м/с)
 
Видим.   Явления Облачность Т
(С)
Тd
(С)
f
(%)
Тe
(С)
Тes
(С)
Комфортность P
(гПа)
Po
(гПа)
Тmin
(С)
Tmax
(С)
R
(мм)
R24
(мм)
S
(см)
06 17.02 СЗ 6 20 км 9/9 300 м
[Sc]
-9.3 -14.3 67 -18 -18 991.1 989.3
09 17.02 С 5 20 км 9/9 300 м
[Sc]
-8.7 -12.2 76 -16 -16 992.5 990.7 -6.3
12 17.02 СЗ 5
{11}
4000 м слаб. ливневой снег {метель} 8/8 300 м
[Cb cap]
-9.8 -11.7 86 -18 -18 991.7 990.0
15 17.02 СЗ 8-11
{13}
20 км позёмок {ливн. осадки} 3/3 600 м
[Sc]
-10.1 -15.1 67 -20 -20 991.9 990.2
18 17.02 СЗ 4
{14}
20 км {ливн. осадки, метель} 8/1 600 м
[Sc Ci fib]
-9.8 -18.3 50 -17 -17 993.0 991.3
21 17.02 СЗ 7 20 км позёмок 8/3 600 м
[Sc Ac lent]
-9.8 -18.3 50 -19 -19 994.5 992.8 -11.0 1 26
00 18.02 СЗ 2
{11}
20 км {метель} 8/0
[Ac trans Ci fib]
-9.4 -15.9 59 -14 -12 996.8 995.0
03 18.02 СЗ 5 20 км 6/0
[Ac trans Ci fib]
-9.5 -17.3 53 -17 -17 999.1 997.3
06 18.02 З 2 20 км {метель} 4/3 600 м
[Sc Ci fib]
-9.9 -18.3 50 -14 -14 1000.5 998.7
09 18.02 З 4 20 км 3/1 600 м
[Sc Ci fib]
-12.3 -19.5 55 -19 -19 1003.1 1001.3 -7.3
12 18.02 З 4 20 км 3/3 600 м
[Sc Ci fib]
-11.8 -19.4 53 -19 -19 1004.5 1002.7
15 18.02 З 1
{10}
20 км ясно -12.9 -19.6 57 -15 -15 1005.8 1004.0
18 18.02 З 1 20 км ясно -11.8 -20.8 47 -14 -14 1007.1 1005.3
21 18.02 З 2 20 км 3/3 600 м
[Sc Ci fib]
-12.0 -19.9 52 -17 -16 1007.5 1005.7 -13.8 26
00 19.02 З 2 20 км 3/1 600 м
[Sc Ci fib]
-8.4 -17.9 46 -12 -10 1008.6 1006.8
03 19.02 СЗ 1 20 км 3/3 600 м
[Sc]
-6.6 -17.6 41 -8 -6 1009.8 1008.0
06 19.02 СЗ 3 20 км 3/3 600 м
[Sc]
-11.3 -18.1 57 -17 -17 1009.8 1008.0
09 19.02 С 2 20 км 3/1 600 м
[Sc Ci fib]
-12.3 -19.3 56 -17 -17 1011.2 1009.3 -6.5
12 19.02 СЗ 2 20 км 3/1 600 м
[Sc Ci fib]
-12.7 -19.6 56 -17 -17 1011.2 1009.3
15 19.02 СЗ 2 20 км 3/1 600 м
[Sc Ci fib]
-11.5 -20.1 49 -16 -16 1011.1 1009.3
18 19.02 С 4 20 км 3/3 600 м
[Sc]
-11.3 -15.7 70 -18 -18 1011.1 1009.3
21 19.02 С 4 20 км 8/3 600 м
[Sc Ci fib]
-11.6 -17.4 62 -19 -19 1011.1 1009.3 -13.3 26
00 20.02 С 3 20 км 10/1 600 м
[Sc Cs]
-8.8 -15.6 58 -14 -13 1011.3 1009.5
03 20.02 С 4 20 км 8/1 600 м
[Sc Ci fib]
-7.9 -12.0 72 -15 -14 1012.5 1010.7
06 20.02 С 4 20 км 8/1 600 м
[Sc Ac trans Cc]
-9.8 -15.7 62 -17 -17 1012.5 1010.7
09 20.02 С 6 20 км 8/3 600 м
[Sc Cc]
-9.0 -14.4 65 -17 -17 1012.5 1010.7 -7.1
12 20.02 С 6 20 км 10/4 600 м
[Sc Cs]
-8.7 -13.0 71 -17 -17 1011.1 1009.3
15 20.02 С 7
{10}
20 км 10/8 600 м
[Sc Cs]
-8.8 -11.9 78 -18 -18 1011.1 1009.3
18 20.02 С 8-10
{11}
20 км 9/9 600 м
[Sc]
-8.6 -12.2 75 -18 -18 1009.3 1007.5
21 20.02 С 9-11
{13}
20 км позёмок 6/6 300 м
[Sc]
-8.5 -10.6 85 -18 -18 1008.9 1007.1 -9.7 26
00 21.02 С 11-14
{15}
20 км сильный позёмок 5/5 300 м
[Sc]
-8.2 -9.5 90 -19 -19 1007.8 1006.0
03 21.02 С 13-19
{19}
1000 м слаб. ливневой снег {метель} 6/6 300 м
[Cb cap]
-8.0 -9.1 92 -19 -19 1005.3 1003.5
06 21.02 С 14-19
{21}
1000 м слаб. ливневой снег {метель} 8/8 300 м
[Cb cap]
-7.8 -8.7 93 -20 -20 1005.8 1004.0
09 21.02 С 15-21
{22}
500 м ливневой снег {метель} 10/10 300 м
[Cb cap]
-7.5 -8.2 95 -20 -20 1004.5 1002.7 -7.3 1
12 21.02 С 14-18
{24}
500 м ливневой снег {метель} 10/10 300 м
[Cb cap]
-8.2 -8.9 95 -20 -20 1001.7 999.9
15 21.02 С 11-17
{24}
1000 м ливневой снег {метель} 10/10 300 м
[Cb cap]
-9.7 -10.8 92 -21 -21 1001.3 999.5
18 21.02 СЗ 15-21
{21}
1000 м слаб. ливневой снег {метель} 10/10 300 м
[Cb cap]
-13.4 -14.8 89 -27 -27 1000.4 998.6
21 21.02 СЗ 20-25
{25}
500 м ливневой снег {метель} 10/10 300 м
[Cb cap]
-13.8 -15.4 88 -29 -29 999.1 997.3 -14.3 6 27
00 22.02 СЗ 19-22
{27}
4000 м метель {ливн. осадки} 8/3 600 м
[Sc Ci fib]
-12.7 -17.7 66 -27 -27 999.1 997.3
03 22.02 СЗ 13-17
{22}
20 км позёмок 8/0
[Ci]
-11.6 -19.3 53 -24 -24 999.4 997.6
06 22.02 СЗ 10-14
{18}
20 км {метель} 6/0
[Ci fib]
-10.8 -19.4 49 -21 -21 1000.5 998.7
09 22.02 СЗ 6
{14}
20 км 4/0
[Ci fib]
-10.8 -19.9 47 -19 -19 1000.5 998.7 -10.4 0.3
12 22.02 СЗ 4 20 км 3/1 600 м
[Sc Ci fib]
-11.7 -20.7 47 -19 -19 1000.5 998.7
15 22.02 З 3 20 км 3/3 600 м
[Sc]
-13.9 -21.2 54 -20 -20 999.1 997.3
18 22.02 З 3 20 км 7 баллов -13.9 -20.0 60 -20 -20 997.8 996.0
21 22.02 СЗ 2 20 км 4/3 600 м
[Sc Cc]
-13.9 -19.2 64 -19 -19 996.5 994.7 -14.3 25
00 23.02 С 3 20 км 4/3 600 м
[Sc Ci fib]
-8.8 -16.7 53 -14 -12 995.9 994.2
03 23.02 С 5 20 км 8/3 600 м
[Sc Ac lent Cc]
-10.5 -15.2 68 -18 -18 996.5 994.7
06 23.02 С 6 20 км 8/4 300 м
[Sc Ac trans]
-11.3 -15.7 70 -20 -20 996.5 994.7
09 23.02 С 5 20 км 10/10 600 м
[Sc]
-11.0 -15.6 69 -19 -19 996.5 994.7 -7.3
12 23.02 С 5 20 км 3/3 600 м
[Sc]
-12.0 -20.5 49 -20 -20 996.5 994.7
15 23.02 С 5 20 км 2 балла -12.8 -20.4 53 -21 -21 996.5 994.7
18 23.02 С 6 20 км 7 баллов -12.7 -18.4 62 -22 -22 996.5 994.7
21 23.02 С 6
{10}
20 км 3/1 600 м
[Sc Ci fib]
-13.1 -19.2 60 -22 -22 994.7 992.9 -13.9 25
00 24.02 С 6
{10}
20 км 3/3 600 м
[Sc Ci fib]
-11.9 -17.3 64 -21 -20 994.2 992.5

 

Местоположение метеостанции Мыс Африка (Камчатский край, Россия): широта 56.18 долгота 163.30 высота над уровнем моря 14 м.

В архиве по умолчанию представлена погода на Мысе Африка за последнюю неделю. Архивные данные за месяц целиком и за предыдущие месяцы, начиная с января 2011 года, Вы можете получить, выбрав интересующий диапазон дат из раскрывающегося списка и нажав кнопку "Ввод!".


*Определитесь, кто Вы:
робот инопланетянин человек

Внимание! Время в таблицах - всемирное. Для получения местного времени необходимо прибавить поправку, которая равна 12 ч.

Смотрите также архив погоды в соседних городах и на ближайших метеорологических станциях:

Погода в Усть-Камчатске (Камчатский край, Россия) (37 км)
Погода в Ключах (Камчатский край, Россия) (155 км)
Погода на Мысе Озерном (Камчатский край, Россия) (164 км)
Погода на Острове Беринга (Камчатский край, Россия) (196 км)
Погода в Козыревске (Камчатский край, Россия) (217 км)
Погода в Эссо (Камчатский край, Россия) (287 км)
Погода в Долиновке (Камчатский край, Россия) (294 км)
Погода в Семячике (Камчатский край, Россия) (315 км)
Погода в Тигиле (Камчатский край, Россия) (334 км)
Погода в Оссоре (Камчатский край, Россия) (340 км)

Пояснения к столбцам:

Ветер - указаны скорость ветра в м/с - средняя за 10 мин, порывы в срок и между сроками (в фигурных скобках) и направление, откуда дует ветер: С - северный, СВ - северо-восточный, В - восточный, ЮВ - юго-восточный, Ю - южный, ЮЗ - юго-западный, З - западный, СЗ - северо-западный.
Видимость - горизонтальная дальность видимости в метрах или километрах. При видимости от 1 до 10 км при отсутствии осадков обычно наблюдается дымка, при ухудшении видимости до 1 км и менее - туман. В сухую погоду видимость может ухудшаться дымом, пылью или мглою.
Явления - указаны атмосферные явления, наблюдавшиеся в срок или в последний час перед сроком; фигурными скобками обозначены явления, наблюдавшиеся между сроками (за 1-3 часа до срока); квадратными скобками обозначены град или гололедные отложения с указанием их диаметра в мм.
Облачность - указаны через наклонную черту общая и нижняя облачность в баллах и высота нижней границы облаков в метрах; квадратными скобками обозначены формы облаков: Ci - перистые, Cs - перисто-слоистые, Cc - перисто-кучевые, Ac - высококучевые, As - высокослоистые, Sc - слоисто-кучевые, Ns - слоисто-дождевые, Cu - кучевые, Cb - кучево-дождевые. Подробнее классификацию облаков см. в Атласе облаков (PDF).
T - Температура воздуха - температура, измеренная на высоте 2 м над землей.
Td - Температура точки росы - температура, при понижении до которой содержащийся в воздухе водяной пар достигнет насыщения.
f - Относительная влажность воздуха - влажноcть воздуха, измеренная на высоте 2 м над землей.
Te - Эффективная температура - температура, которую ощущает одетый по сезону человек в тени. Характеристика душности погоды. При расчете учитывается влияние влажности воздуха и скорости ветра на теплоощущения человека.
Tes - Эффективная температура на солнце - температура, которую ощущает человек, с поправкой на солнечный нагрев. Характеристика знойности погоды. Зависит от высоты солнца над горизонтом, облачности и скорости ветра. Ночью, в пасмурную погоду, а также при ветре 12 м/с и более поправка равна нулю.
P - Атмосферное давление - приведенное к уровню моря атмосферное давление.
Po - Атмосферное давление - измеренное на уровне метеостанции атмосферное давление.
Tmin - Минимальная температура - минимум температуры воздуха на высоте 2 м над землей.
Tmax - Максимальная температура - максимум температуры воздуха на высоте 2 м над землей.
R - Количество осадков - Количество выпавших осадков за период времени, мм. При наведении курсора мыши на число - период времени, за который выпало указанное количество осадков.
R24 - Количество осадков - Количество выпавших осадков за 24 часа, мм.
S - Снежный покров - Высота снежного покрова, см. При наведении курсора мыши на число - состояние снежного покрова и степень покрытия местности в баллах.